This demonstration page uses our WeatherBlox Daily Observations layout. Learn more.

Left ArrowRight Arrow

34.74481, -87.66753

Hourly Observations for September 6, 2019

Temp ( °F °C ) Dew Point ( °F °C ) Humidity (%) Winds ( mph kmh ) Pressure ( in mb ) Visibility ( mi km ) Precip ( " mm )
12:53 am 00:53 Clear 72 22.2 62 16.7 71 71 N 3 6 29.98 1015 10 16 0.00 0.00
1:53 am 01:53 Clear 71 21.7 62 16.7 73 73 NNE 7 11 29.98 1015 10 16 0.00 0.00
2:53 am 02:53 Clear 71 21.7 62 16.7 73 73 N 6 9 29.97 1015 10 16 0.00 0.00
3:53 am 03:53 Clear 69 20.6 61 16.1 76 76 N 3 6 29.97 1015 10 16 0.00 0.00
4:53 am 04:53 Clear 68 20 61 16.1 78 78 NNE 5 7 29.97 1015 10 16 0.00 0.00
5:53 am 05:53 Clear 67 19.4 61 16.1 81 81 N 3 6 29.98 1015 10 16 0.00 0.00
6:53 am 06:53 Sunny 64 17.8 60 15.6 87 87 WSW 3 6 30.00 1016 10 16 0.00 0.00
7:53 am 07:53 Sunny 71 21.7 63 17.2 76 76 Calm 30.02 1017 10 16 0.00 0.00
8:53 am 08:53 Sunny 76 24.4 63 17.2 64 64 N 5 7 30.03 1017 10 16 0.00 0.00
9:53 am 09:53 Sunny 79 26.1 62 16.7 56 56 WNW 5 7 30.04 1017 10 16 0.00 0.00
10:53 am 10:53 Sunny 82 27.8 62 16.7 51 51 Calm 30.03 1017 10 16 0.00 0.00
11:53 am 11:53 Sunny 86 30 59 15 40 40 VRB 6 9 30.01 1016 10 16 0.00 0.00
12:53 pm 12:53 Sunny 89 31.7 59 15 36 36 WNW 7 11 29.99 1016 10 16 0.00 0.00
1:53 pm 13:53 Sunny 92 33.3 59 15 33 33 VRB 6 9 29.97 1015 10 16 0.00 0.00
2:53 pm 14:53 Sunny 93 33.9 65 18.3 40 40 WNW 8 13 29.95 1014 10 16 0.00 0.00
3:53 pm 15:53 Sunny 92 33.3 68 20 46 46 WNW 10 17 29.93 1014 10 16 0.00 0.00
4:53 pm 16:53 Sunny 92 33.3 70 21.1 49 49 WNW 9 15 29.93 1014 10 16 0.00 0.00
5:53 pm 17:53 Sunny 90 32.2 70 21.1 52 52 WNW 10 17 29.93 1014 10 16 0.00 0.00
6:53 pm 18:53 Sunny 86 30 71 21.7 61 61 NW 5 7 29.94 1014 10 16 0.00 0.00
7:53 pm 19:53 Clear 80 26.7 72 22.2 76 76 Calm 29.94 1014 10 16 0.00 0.00
8:53 pm 20:53 Clear 77 25 72 22.2 85 85 Calm 29.95 1014 10 16 0.00 0.00
9:53 pm 21:53 Clear 76 24.4 72 22.2 88 88 Calm 29.94 1014 10 16 0.00 0.00
10:53 pm 22:53 Clear 76 24.4 72 22.2 88 88 Calm 29.94 1014 9 14 0.00 0.00
11:53 pm 23:53 Clear 75 23.9 72 22.2 90 90 Calm 29.94 1014 8 13 0.00 0.00

Powered by AerisWeather